Regional Weather Roundup
Issued by NWS

Home | Current Version | Previous Version | Text Only | Print | Product List | Glossary On
Versions: 1 2 3 4 5 6 7 8 9 10 11 12 13 14 15 16 17 18 19 20 21 22 23 24 25 26 27 28 29 30 31 32 33 34 35 36 37 38 39 40 41 42 43 44 45 46 47 48 49 50
000
ASUS43 KLSX 281807
RWRMO

WEATHER SUMMARY FOR MISSOURI
NATIONAL WEATHER SERVICE SPRINGFIELD MO
100 PM CDT TUE JUL 28 2015

NOTE: "FAIR" INDICATES FEW OR NO CLOUDS BELOW 12,000 FEET WITH NO
       SIGNIFICANT WEATHER AND/OR OBSTRUCTIONS TO VISIBILITY.
       CURRENT SKY AND/OR WEATHER CONDITIONS ARE NOT AVAILABLE FOR
       CHILLICOTHE AND FARMINGTON.

MOZ001>031-035>038-043-044-053-054-281900-
...NORTHERN AND WESTERN MISSOURI...

CITY           SKY/WX    TMP DP  RH WIND       PRES   REMARKS
KANSAS CTY INT MOSUNNY   91  74  57 S15G23    29.90F HX 100
6HR MIN TEMP:  78; 6HR MAX TEMP:  91;

KANSAS C DTWN  SUNNY     95  73  48 S16G24    29.88F HX 104
6HR MIN TEMP:  81; 6HR MAX TEMP:  95;

LEE`S SUMMIT   SUNNY     92  72  51 S14G23    29.93F HX  99
6HR MIN TEMP:  79; 6HR MAX TEMP:  92;

ST JOSEPH      SUNNY     90  76  63 SW14G21   29.86F HX 101
6HR MIN TEMP:  78; 6HR MAX TEMP:  91;

CHILLICOTHE      N/A     92  76  59 S7        29.92F HX 104
6HR MIN TEMP:  75; 6HR MAX TEMP:  92;

KIRKSVILLE     SUNNY     92  76  59 S12       29.95F HX 104
6HR MIN TEMP:  72; 6HR MAX TEMP:  92; 6HR PCP: TRACE;


$$
MOZ066>068-077>081-088>096-101>105-281900-
...SOUTHWEST MISSOURI...

CITY           SKY/WX    TMP DP  RH WIND       PRES   REMARKS
SPRINGFIELD    MOSUNNY   91  73  55 W9        30.01F HX  99
6HR MIN TEMP:  77; 6HR MAX TEMP:  91;

JOPLIN         SUNNY     93  72  50 SW13      29.97F HX 101
6HR MIN TEMP:  78; 6HR MAX TEMP:  93;


$$
MOZ032>034-039>042-045>050-055>058-069>072-281900-
...CENTRAL MISSOURI...

CITY           SKY/WX    TMP DP  RH WIND       PRES   REMARKS
COLUMBIA       SUNNY     91  77  63 SW13      29.97S HX 104
6HR MIN TEMP:  74; 6HR MAX TEMP:  91;

JEFFERSON CITY MOSUNNY   93  75  55 SW8       29.95S HX 104
6HR MIN TEMP:  75; 6HR MAX TEMP:  93;

ROLLA          SUNNY     91  76  61 VRB7      29.99F HX 103
6HR MIN TEMP:  76; 6HR MAX TEMP:  91;

SEDALIA        SUNNY     94  73  50 S14       29.97S HX 103
6HR MIN TEMP:  78; 6HR MAX TEMP:  94;

WHITEMAN AFB   MOSUNNY   94  72  48 SW18      29.93F HX 102
WARRENSBURG    SUNNY     91  70  49 S12G18    29.93S HX  97
OSAGE BEACH    SUNNY     93  73  52 SW9       29.98F HX 102

$$
MOZ051-052-059>065-281900-
...EAST CENTRAL MISSOURI...

CITY           SKY/WX    TMP DP  RH WIND       PRES   REMARKS
ST LOUIS INTL  MOSUNNY   95  75  52 E5        29.96F HX 107
6HR MIN TEMP:  77; 6HR MAX TEMP:  96;

SPIRIT OF STL  MOSUNNY   93  77  59 CALM      29.94F HX 107
6HR MIN TEMP:  75; 6HR MAX TEMP:  93;

ST CHARLES     SUNNY     92  81  70 S5        29.94F HX 112
6HR MIN TEMP:  74; 6HR MAX TEMP:  92;


$$
MOZ072>076-082>087-097>100-106>115-281900-
...SOUTH CENTRAL AND SOUTHEAST MISSOURI...

CITY           SKY/WX    TMP DP  RH WIND       PRES   REMARKS
CAPE GIRARDEAU SUNNY     92  79  65 S6        29.97F HX 108
6HR MIN TEMP:  75; 6HR MAX TEMP:  92;

FARMINGTON     SUNNY     91  77  62 W3        30.03F HX 105
6HR MIN TEMP:  73; 6HR MAX TEMP:  91;

POPLAR BLUFF   SUNNY     92  79  65 S6        29.97F HX 108
6HR MIN TEMP:  77; 6HR MAX TEMP:  93;

WEST PLAINS    SUNNY     92  73  53 VRB6      30.04F HX 100
6HR MIN TEMP:  75; 6HR MAX TEMP:  92;


$$



USA.gov is the U.S. government's official web portal to all federal, state and local government web resources and services.